Lyndonville, VT

12:14 AM EDT on July 23, 2017 (GMT -0400)
Lyndonville

Weather History for KCDA - April, 2014

Change the Weather History Date:

Thursday, April 17, 2014

  Actual Average (K1V4) Record (K1V4)
Temperature  
Mean Temperature 29 °F -  
Max Temperature 45 °F 53 °F 88 °F (2002)
Min Temperature 13 °F 30 °F 11 °F (1904)
Degree Days  
Heating Degree Days 36    
Moisture  
Dew Point 12 °F    
Average Humidity 54    
Maximum Humidity 87    
Minimum Humidity 26    
Precipitation  
Precipitation 0.00 in - - ()
Sea Level Pressure  
Sea Level Pressure 30.68 in    
Wind  
Wind Speed 2 mph (South)    
Max Wind Speed 9 mph    
Max Gust Speed -    
Visibility 10 miles    
Events      
Averages and records for this station are not official NWS values.
T = Trace of Precipitation, MM = Missing Value Source: NWS Daily Summary

Daily Weather History Graph

Daily Weather History Graph

Search for Another Location

Airport or City:

Trip Planner

Search our weather history database for the weather conditions in past years. The results will help you decide how hot, cold, wet, or windy it might be!

Date:

Astronomy

Apr. 17, 2014 Rise Set
Actual Time 6:00 AM EDT 7:35 PM EDT
Civil Twilight 5:30 AM EDT 8:06 PM EDT
Nautical Twilight 4:53 AM EDT 8:43 PM EDT
Astronomical Twilight 4:13 AM EDT 9:23 PM EDT
Moon 10:23 PM EDT (4/17) 7:26 AM EDT (4/17)
Length of Visible Light 14h 35m
Length of Day
13h 34m
Waning Gibbous, 94% of the Moon is Illuminated
Apr 17
Waning Gibbous
Apr 22
Last Quarter
Apr 29
New
May 6
First Quarter
May 14
Full

Hourly Weather History & Observations

Time (EDT) Temp. Windchill Dew Point Humidity Pressure Visibility Wind Dir Wind Speed Gust Speed Precip Events Conditions
12:15 AM 17.2 °F - 12.7 °F 83% 30.62 in 10.0 mi Calm Calm - N/A   Clear
12:35 AM 17.4 °F - 13.5 °F 84% 30.62 in 10.0 mi Calm Calm - N/A   Clear
12:55 AM 16.7 °F - 12.6 °F 84% 30.64 in 10.0 mi Calm Calm - N/A   Clear
1:15 AM 15.8 °F - 11.7 °F 84% 30.64 in 10.0 mi Calm Calm - N/A   Clear
1:35 AM 15.6 °F - 11.8 °F 85% 30.64 in 10.0 mi Calm Calm - N/A   Clear
1:55 AM 15.8 °F - 12.2 °F 86% 30.64 in 10.0 mi Calm Calm - N/A   Clear
2:15 AM 14.7 °F - 11.5 °F 87% 30.65 in 10.0 mi Calm Calm - N/A   Clear
2:35 AM 15.1 °F - 11.7 °F 86% 30.65 in 10.0 mi Calm Calm - N/A   Clear
2:55 AM 15.6 °F - 12.2 °F 86% 30.66 in 10.0 mi Calm Calm - N/A   Clear
3:15 AM 15.4 °F - 12.0 °F 86% 30.66 in 10.0 mi Calm Calm - N/A   Clear
3:35 AM 16.2 °F - 12.6 °F 86% 30.67 in 10.0 mi Calm Calm - N/A   Clear
3:55 AM 14.9 °F - 11.3 °F 86% 30.68 in 10.0 mi Calm Calm - N/A   Clear
4:15 AM 15.6 °F - 12.0 °F 86% 30.68 in 10.0 mi Calm Calm - N/A   Clear
4:35 AM 15.4 °F - 11.7 °F 85% 30.68 in 10.0 mi Calm Calm - N/A   Clear
4:55 AM 13.8 °F - 10.2 °F 86% 30.69 in 10.0 mi Calm Calm - N/A   Clear
5:15 AM 14.4 °F - 10.9 °F 86% 30.70 in 10.0 mi Calm Calm - N/A   Clear
5:35 AM 14.2 °F 8.4 °F 10.6 °F 86% 30.70 in 10.0 mi WSW 3.5 mph - N/A   Clear
5:55 AM 14.9 °F - 11.3 °F 86% 30.71 in 10.0 mi Calm Calm - N/A   Clear
6:15 AM 13.5 °F - 9.7 °F 85% 30.72 in 10.0 mi Calm Calm - N/A   Clear
6:35 AM 14.0 °F - 10.4 °F 86% 30.72 in 10.0 mi Calm Calm - N/A   Clear
6:55 AM 14.9 °F - 11.3 °F 86% 30.72 in 10.0 mi Calm Calm - N/A   Clear
7:15 AM 15.6 °F - 12.2 °F 86% 30.74 in 10.0 mi Calm Calm - N/A   Clear
7:35 AM 16.7 °F - 13.3 °F 86% 30.74 in 10.0 mi Calm Calm - N/A   Clear
7:55 AM 18.7 °F - 13.8 °F 81% 30.75 in 10.0 mi Calm Calm - N/A   Clear
8:15 AM 20.1 °F - 14.5 °F 79% 30.75 in 10.0 mi Calm Calm - N/A   Clear
8:35 AM 22.3 °F - 14.5 °F 72% 30.76 in 10.0 mi Calm Calm - N/A   Clear
8:55 AM 24.6 °F - 15.6 °F 69% 30.76 in 10.0 mi Calm Calm - N/A   Clear
9:15 AM 26.2 °F - 14.9 °F 62% 30.76 in 10.0 mi Calm Calm - N/A   Clear
9:35 AM 28.4 °F - 14.2 °F 55% 30.76 in 10.0 mi Calm Calm - N/A   Clear
9:55 AM 30.2 °F 25.4 °F 13.6 °F 50% 30.76 in 10.0 mi SSW 4.6 mph - N/A   Clear
10:15 AM 31.3 °F 27.9 °F 14.2 °F 49% 30.76 in 10.0 mi SSE 3.5 mph - N/A   Clear
10:35 AM 32.4 °F 26.0 °F 14.7 °F 48% 30.76 in 10.0 mi South 6.9 mph - N/A   Clear
10:55 AM 32.5 °F 24.8 °F 11.7 °F 42% 30.76 in 10.0 mi SE 9.2 mph - N/A   Clear
11:15 AM 33.4 °F 28.1 °F 9.5 °F 37% 30.75 in 10.0 mi SSW 5.8 mph - N/A   Clear
11:35 AM 33.6 °F - 9.7 °F 37% 30.75 in 10.0 mi Calm Calm - N/A   Clear
11:55 AM 35.2 °F 32.4 °F 11.8 °F 38% 30.74 in 10.0 mi ENE 3.5 mph - N/A   Clear
12:15 PM 35.8 °F 30.1 °F 14.0 °F 41% 30.73 in 10.0 mi SE 6.9 mph - N/A   Clear
12:35 PM 37.0 °F 32.4 °F 14.4 °F 40% 30.73 in 10.0 mi South 5.8 mph - N/A   Clear
12:55 PM 37.4 °F 30.8 °F 12.2 °F 36% 30.72 in 10.0 mi SSW 9.2 mph - N/A   Clear
1:15 PM 38.7 °F 36.3 °F 12.9 °F 35% 30.72 in 10.0 mi ESE 3.5 mph - N/A   Clear
1:35 PM 39.7 °F 36.5 °F 13.1 °F 34% 30.71 in 10.0 mi South 4.6 mph - N/A   Clear
1:55 PM 40.5 °F 38.4 °F 12.6 °F 32% 30.70 in 10.0 mi East 3.5 mph - N/A   Clear
2:15 PM 41.5 °F 39.6 °F 13.1 °F 31% 30.70 in 10.0 mi East 3.5 mph - N/A   Clear
2:35 PM 42.1 °F 37.1 °F 13.5 °F 31% 30.69 in 10.0 mi South 8.1 mph - N/A   Clear
2:55 PM 43.0 °F 39.5 °F 12.6 °F 29% 30.68 in 10.0 mi SSE 5.8 mph - N/A   Clear
3:15 PM 43.7 °F 40.3 °F 13.1 °F 29% 30.68 in 10.0 mi South 5.8 mph - N/A   Clear
3:35 PM 43.3 °F 39.2 °F 11.3 °F 27% 30.67 in 10.0 mi SSE 6.9 mph - N/A   Clear
3:55 PM 43.7 °F 40.3 °F 12.2 °F 28% 30.66 in 10.0 mi South 5.8 mph - N/A   Clear
4:15 PM 44.4 °F 42.9 °F 12.4 °F 27% 30.65 in 10.0 mi SW 3.5 mph - N/A   Clear
4:35 PM 45.0 °F 43.5 °F 12.4 °F 27% 30.64 in 10.0 mi SSE 3.5 mph - N/A   Clear
4:55 PM 45.5 °F 42.5 °F 13.3 °F 27% 30.64 in 10.0 mi SSE 5.8 mph - N/A   Clear
5:15 PM 44.8 °F 41.6 °F 11.7 °F 26% 30.64 in 10.0 mi South 5.8 mph - N/A   Clear
5:35 PM 44.8 °F 41.0 °F 12.2 °F 27% 30.64 in 10.0 mi South 6.9 mph - N/A   Clear
5:55 PM 44.6 °F 42.2 °F 12.4 °F 27% 30.63 in 10.0 mi South 4.6 mph - N/A   Clear
6:15 PM 43.9 °F 41.3 °F 12.7 °F 28% 30.63 in 10.0 mi South 4.6 mph - N/A   Clear
6:35 PM 43.5 °F 40.1 °F 11.3 °F 27% 30.63 in 10.0 mi South 5.8 mph - N/A   Clear
6:55 PM 42.1 °F 37.1 °F 10.8 °F 28% 30.63 in 10.0 mi South 8.1 mph - N/A   Clear
7:15 PM 40.6 °F 36.0 °F 10.8 °F 29% 30.62 in 10.0 mi South 6.9 mph - N/A   Clear
7:35 PM 39.2 °F 34.2 °F 9.3 °F 29% 30.62 in 10.0 mi South 6.9 mph - N/A   Clear
7:55 PM 38.7 °F 34.3 °F 8.8 °F 29% 30.62 in 10.0 mi South 5.8 mph - N/A   Clear
8:15 PM 37.2 °F 32.6 °F 10.0 °F 33% 30.62 in 10.0 mi SSE 5.8 mph - N/A   Clear
8:35 PM 36.9 °F 33.1 °F 10.2 °F 33% 30.62 in 10.0 mi SSE 4.6 mph - N/A   Clear
8:55 PM 36.1 °F 33.5 °F 10.6 °F 35% 30.62 in 10.0 mi SSE 3.5 mph - N/A   Clear
9:15 PM 36.1 °F 32.3 °F 11.1 °F 36% 30.62 in 10.0 mi SSE 4.6 mph - N/A   Clear
9:35 PM 35.2 °F 29.5 °F 11.8 °F 38% 30.62 in 10.0 mi SSE 6.9 mph - N/A   Clear
9:55 PM 35.1 °F 28.6 °F 12.6 °F 40% 30.61 in 10.0 mi South 8.1 mph - N/A   Clear
10:15 PM 34.2 °F 30.0 °F 12.2 °F 40% 30.62 in 10.0 mi SSE 4.6 mph - N/A   Clear
10:35 PM 33.4 °F 29.1 °F 13.3 °F 43% 30.62 in 10.0 mi South 4.6 mph - N/A   Clear
10:55 PM 32.5 °F 27.1 °F 13.8 °F 46% 30.61 in 10.0 mi South 5.8 mph - N/A   Clear
11:15 PM 32.5 °F 25.5 °F 13.5 °F 45% 30.60 in 10.0 mi South 8.1 mph - N/A   Clear
11:35 PM 31.5 °F 26.8 °F 13.5 °F 47% 30.61 in 10.0 mi South 4.6 mph - N/A   Clear
11:55 PM 31.6 °F 24.4 °F 13.8 °F 48% 30.60 in 10.0 mi South 8.1 mph - N/A   Clear